Regional Weather Roundup
Issued by NWS

Home | Current Version | Previous Version | Graphics & Text | Print | Product List | Glossary On
Versions: 1 2 3 4 5 6 7 8 9 10 11 12 13 14 15 16 17 18 19 20 21 22 23 24 25 26 27 28 29 30 31 32 33 34 35 36 37 38 39 40 41 42 43 44 45 46 47 48 49 50
323
ASUS43 KBIS 301802
RWRND

NORTH DAKOTA REGIONAL WEATHER ROUNDUP
NATIONAL WEATHER SERVICE BISMARCK ND
100 PM CDT THU MAR 30 2017

NOTE: "FAIR" INDICATES FEW OR NO CLOUDS BELOW 12,000 FEET WITH NO
SIGNIFICANT WEATHER AND/OR OBSTRUCTIONS TO VISIBILITY.


NDZ001>003-009>011-017-301900-
NORTHWEST NORTH DAKOTA

CITY           SKY/WX    TMP DP  RH WIND       PRES   REMARKS
WILLISTON      FAIR      58  41  53 VRB6      29.70S
6HR MIN TEMP:  43; 6HR MAX TEMP:  58;

MINOT          CLOUDY    54  39  57 SE10      29.75F
MINOT AFB      CLOUDY    50  40  66 SE12      29.75S
$$

NDZ018>021-031>035-040>046-301900-
SOUTHWEST NORTH DAKOTA

CITY           SKY/WX    TMP DP  RH WIND       PRES   REMARKS
BISMARCK       FAIR      50  36  58 S14G22    29.83F
6HR MIN TEMP:  38; 6HR MAX TEMP:  51;

DICKINSON      CLOUDY    51  36  56 S16       29.71R
GARRISON         N/A     49  36  61 S17       29.76F
6HR MIN TEMP:  38; 6HR MAX TEMP:  50;

HETTINGER ARPT CLOUDY    50  37  61 SE14      29.76F
$$

NDZ004>008-012>016-024-026-027-054-301900-
NORTHEAST NORTH DAKOTA

CITY           SKY/WX    TMP DP  RH WIND       PRES   REMARKS
GRAND FORKS    PTSUNNY   51  43  74 S18G24    29.90F
GRND FRKS AFB  MOSUNNY   51  40  64 S16       29.89F
DEVILS LAKE    CLOUDY    48  37  65 S14       29.85S
$$

NDZ022-023-025-028>030-036>039-047>053-301900-
SOUTHEAST NORTH DAKOTA

CITY           SKY/WX    TMP DP  RH WIND       PRES   REMARKS
FARGO          MOSUNNY   51  39  63 S10       29.90F
6HR MIN TEMP:  32; 6HR MAX TEMP:  52;

JAMESTOWN      FAIR      48  37  65 SE12      29.85F
$$





USA.gov is the U.S. government's official web portal to all federal, state and local government web resources and services.